Content
SEND FEEDBACK

Daily
Averages
Monthly
Summary
Canada

QUEBEC CITY, QUEBEC


Home > North America > Canada > Quebec
Elevation: 239 feet     Latitude: 46 48N     Longitude: 071 23W

WEATHER
 
SELECT A DAY
Number of Records: 191,829;   Date Range: 6/30/96 - 7/11/14
 
SHARE

PRINT THIS DATA

[ ← Previous Day ]
WEATHER ALMANAC - FEBRUARY 8, 2013
[ Next Day → ]
[ °C ]   °F
Weather ElementAverageHighLow
Temperature3.3 °F10 °F (7:00 pm)-12 °F (1:00 am)
Dewpoint-5.4 °F4 °F (7:00 pm)-23.8 °F (1:00 am)
Humidity64.2 %73 % (7:00 pm)54 % (1:00 am)
Barometer29.51 in30.58 in (1:00 am) (7:00 pm)
Wind Speed14.7 mph27.6 mph (7:00 pm)
Wind Gust38 mph (4:00 pm)
Weather ElementAverage
Visibility6.1 mi
Wind DirectionENE (54.1 °)

Weather ElementTotal
Precipitation---
Heating Degree Days66 (Base 65)
Averaged from 32 records on February 8, 2013
WEATHER CONDITIONS BREAKOUT
WIND DIRECTION BREAKOUT
WEATHER BY HOUR - FEBRUARY 8, 2013
[ °C ]   °F
Local TimeTemperatureDewpointHumidityBarometerVisibilityWind DirectionWind SpeedGust SpeedPrecipitationEventsConditions
1:00 AM-12.0 °F-19.0 °F57 %30.57 inNorth (10°)2.3 mph
1:00 AM-11.2 °F-23.8 °F54 %30.58 in15.0 miNNE (20°)5.8 mphClear
2:00 AM-9.4 °F-20.2 °F59 %30.58 in15.0 miNNE (20°)4.6 mphOvercast
3:00 AM-5.8 °F-18.4 °F55 %30.57 in15.0 miNorth (10°)6.9 mphOvercast
4:00 AM-5.0 °F-12.0 °F60 %30.56 inNE (40°)2.3 mph
4:00 AM-5.8 °F-16.6 °F60 %30.56 in15.0 miNorth (10°)6.9 mphOvercast
5:00 AM-2.2 °F-14.8 °F55 %30.54 in15.0 miNNE (30°)9.2 mphOvercast
6:00 AM-2.2 °F-13.0 °F60 %30.52 in6.0 miENE (60°)9.2 mphOvercast
7:00 AM-0.4 °F-7.6 °F72 %30.52 in1.5 miENE (60°)6.9 mphSnowLight Snow
7:00 AM1.0 °F-4.0 °F71 %30.51 inENE (70°)4.6 mph
8:00 AM3.2 °F-5.8 °F66 %30.53 in1.5 miENE (60°)13.8 mph21.9 mphSnowLight Snow
9:00 AM3.2 °F-4.0 °F72 %30.54 in1.5 miENE (60°)15.0 mphSnowLight Snow
10:00 AM5.0 °F-1.0 °F67 %30.53 inENE (70°)12.7 mph
10:00 AM5.0 °F-4.0 °F66 %30.53 in1.5 miENE (60°)21.9 mphSnowLight Snow
11:00 AM5.0 °F-4.0 °F66 %30.51 in1.5 miENE (60°)20.7 mph29.9 mphSnowLight Snow
11:23 AM5.0 °F0.0 °F2.5 miENE (60°)20.7 mph28.8 mphSnowLight Snow
12:00 PM5.0 °F-4.0 °F66 %30.48 in2.5 miENE (60°)18.4 mph29.9 mphSnowLight Snow
1:00 PM7.0 °F1.0 °F64 %30.45 inENE (70°)13.8 mph
1:00 PM6.8 °F-2.2 °F67 %30.45 in1.5 miENE (60°)18.4 mph28.8 mphSnowLight Snow
2:00 PM6.8 °F-0.4 °F72 %30.44 in1.5 miEast (80°)16.1 mph21.9 mphSnowLight Snow
3:00 PM8.6 °F-0.4 °F67 %30.42 in3.0 miENE (60°)16.1 mph25.3 mphSnowLight Snow
4:00 PM9.0 °F2.0 °F63 %30.38 inENE (70°)15.0 mph
4:00 PM8.6 °F-0.4 °F67 %30.38 in4.0 miENE (70°)24.2 mph38.0 mphSnowLight Snow
5:00 PM8.6 °F-0.4 °F67 %30.38 in4.0 miENE (60°)24.2 mph29.9 mphSnowLight Snow
6:00 PM8.6 °F-0.4 °F67 %30.37 in5.0 miENE (70°)19.6 mph35.7 mphSnowLight Snow
7:00 PM10.0 °F4.0 °F67 %30.36 inENE (70°)13.8 mph
7:00 PM8.6 °F1.4 °F73 %30.37 in4.0 miENE (60°)27.6 mph35.7 mphSnowLight Snow
8:00 PM8.6 °F-0.4 °F67 %30.36 in4.0 miENE (60°)24.2 mph34.5 mphSnowLight Snow
9:00 PM8.6 °F-2.2 °F62 %30.35 in8.0 miENE (60°)21.9 mph29.9 mphSnowLight Snow
10:00 PM10.0 °F2.0 °F57 %30.32 inENE (70°)11.5 mph
10:00 PM8.6 °F-2.2 °F62 %30.32 in8.0 miNE (50°)19.6 mph28.8 mphSnowLight Snow
11:00 PM8.6 °F-2.2 °F62 %30.30 in10.0 miENE (60°)21.9 mph28.8 mphSnowLight Snow
Hourly data recorded from CYQB, located miles away from Quebec City, Quebec







STORIES FROM OUR PARTNERS